VK1ET-13 Weather Reports


Display with metric or nautical units.
time (UTC)temp
F
wind
direction
speed
MPH
gust
MPH
rain 1hr
in
rain 24hr
in
rain mn
in
humidity
%
barometer
mb
20260507174524 48 349 4.0 6.0 0.00 0.00 0.00 78 1017.6
20260507173534 48 349 5.0 7.0 0.00 0.00 0.00 76 1017.5
20260507172530 48 332 6.0 11.0 0.00 0.00 0.00 75 1017.4
20260507171532 48 336 5.0 9.0 0.00 0.00 0.00 74 1017.6
20260507170527 48 344 5.0 7.0 0.00 0.00 0.00 73 1017.5
20260507165530 48 327 5.0 10.0 0.00 0.00 0.00 72 1017.6
20260507164519 48 306 5.0 10.0 0.00 0.00 0.00 71 1017.7
20260507163528 48 323 5.0 11.0 0.00 0.00 0.00 71 1017.7
20260507162518 48 304 8.0 13.0 0.00 0.00 0.00 71 1017.9
20260507161528 47 295 9.0 16.0 0.00 0.00 0.00 70 1017.6
20260507160516 48 305 7.0 14.0 0.00 0.00 0.00 68 1017.8
20260507155525 47 300 6.0 11.0 0.00 0.00 0.00 71 1017.7
20260507154535 46 8 5.0 9.0 0.00 0.00 0.00 72 1017.7
20260507153524 47 18 3.0 5.0 0.00 0.00 0.00 69 1017.9
20260507152534 48 305 5.0 9.0 0.00 0.00 0.00 68 1017.9
20260507151522 48 288 4.0 11.0 0.00 0.00 0.00 68 1018.1
20260507150533 48 280 6.0 13.0 0.00 0.00 0.00 69 1018.1
20260507145521 47 299 4.0 8.0 0.00 0.00 0.00 69 1018.2
20260507144530 47 327 5.0 10.0 0.00 0.00 0.00 70 1018.0
20260507143519 47 285 5.0 9.0 0.00 0.00 0.00 70 1017.9
20260507142528 47 285 2.0 4.0 0.00 0.00 0.00 71 1018.3
20260507141517 47 351 4.0 8.0 0.00 0.00 0.00 70 1018.2
20260507140527 47 20 2.0 4.0 0.00 0.00 0.00 70 1018.5
20260507135536 47 321 4.0 7.0 0.00 0.00 0.00 69 1018.7
20260507134526 47 333 6.0 12.0 0.00 0.00 0.00 70 1018.9
20260507133541 46 325 4.0 9.0 0.00 0.00 0.00 71 1018.9
20260507132524 45 360 4.0 5.0 0.00 0.00 0.00 72 1018.9
20260507131534 45 7 3.0 6.0 0.00 0.00 0.00 71 1019.0
20260507130522 45 11 3.0 9.0 0.00 0.00 0.00 70 1019.1
20260507125531 45 3 4.0 6.0 0.00 0.00 0.00 69 1019.2
20260507124527 45 4 3.0 6.0 0.00 0.00 0.00 68 1019.4
20260507123530 46 332 4.0 6.0 0.00 0.00 0.00 67 1019.4
20260507122519 46 277 3.0 7.0 0.00 0.00 0.00 67 1019.6
20260507121528 45 312 3.0 6.0 0.00 0.00 0.00 68 1019.6
20260507120518 45 321 4.0 8.0 0.00 0.00 0.00 69 1019.6
20260507115527 46 336 4.0 7.0 0.00 0.00 0.00 67 1019.8
20260507114537 46 300 5.0 8.0 0.00 0.00 0.00 65 1019.6
20260507113525 46 274 4.0 9.0 0.00 0.00 0.00 65 1019.6
20260507112534 46 294 6.0 11.0 0.00 0.00 0.00 66 1019.8
20260507111524 46 305 5.0 9.0 0.00 0.00 0.00 67 1019.6
20260507110532 46 315 5.0 9.0 0.00 0.00 0.00 67 1019.7
20260507105522 46 308 4.0 8.0 0.00 0.00 0.00 67 1019.7
20260507104531 46 308 5.0 8.0 0.00 0.00 0.00 65 1019.5
20260507103528 46 313 5.0 10.0 0.00 0.00 0.00 67 1019.4
20260507102529 46 332 6.0 11.0 0.00 0.00 0.00 67 1019.4
20260507101518 47 336 5.0 8.0 0.00 0.00 0.00 66 1019.2
20260507100528 47 318 4.0 8.0 0.00 0.00 0.00 65 1019.2
20260507095531 47 308 4.0 9.0 0.00 0.00 0.00 64 1019.1
20260507094533 47 291 4.0 10.0 0.00 0.00 0.00 64 1019.1
20260507093535 47 298 5.0 11.0 0.00 0.00 0.00 64 1018.8
20260507092532 47 281 4.0 9.0 0.00 0.00 0.00 65 1018.9
20260507091533 47 270 3.0 7.0 0.00 0.00 0.00 65 1018.7
20260507090529 46 284 4.0 9.0 0.00 0.00 0.00 66 1018.6
20260507085531 47 284 4.0 9.0 0.00 0.00 0.00 66 1018.5
20260507084520 46 287 3.0 8.0 0.00 0.00 0.00 67 1018.6
20260507083529 47 269 1.0 3.0 0.00 0.00 0.00 66 1018.6
20260507082518 48 280 3.0 7.0 0.00 0.00 0.00 64 1018.5
20260507081527 48 281 5.0 11.0 0.00 0.00 0.00 62 1018.4
20260507080531 48 277 3.0 8.0 0.00 0.00 0.00 63 1018.2
20260507075526 48 282 4.0 7.0 0.00 0.00 0.00 63 1017.8
20260507074535 48 285 4.0 10.0 0.00 0.00 0.00 62 1017.7
20260507073524 48 279 4.0 9.0 0.00 0.00 0.00 62 1017.4
20260507072535 48 254 5.0 12.0 0.00 0.00 0.00 62 1017.4
20260507071523 48 262 4.0 10.0 0.00 0.00 0.00 62 1017.3
20260507070532 49 272 5.0 10.0 0.00 0.00 0.00 61 1017.2
20260507065521 50 272 5.0 12.0 0.00 0.00 0.00 59 1017.1
20260507064533 50 266 7.0 15.0 0.00 0.00 0.00 57 1016.9
20260507063519 51 274 9.0 16.0 0.00 0.00 0.00 56 1016.9
20260507062529 51 267 5.0 10.0 0.00 0.00 0.00 54 1016.7
20260507061525 51 276 5.0 9.0 0.00 0.00 0.00 53 1016.7
20260507060534 52 271 6.0 15.0 0.00 0.00 0.00 53 1016.5
20260507055517 52 262 6.0 14.0 0.00 0.00 0.00 53 1016.2
20260507054526 52 263 7.0 15.0 0.00 0.00 0.00 52 1016.4
20260507053535 51 231 6.0 11.0 0.00 0.00 0.00 54 1016.2
20260507052524 51 258 7.0 15.0 0.00 0.00 0.00 53 1015.9
20260507051535 51 251 7.0 15.0 0.00 0.00 0.00 51 1015.8
20260507050523 51 267 7.0 12.0 0.00 0.00 0.00 52 1015.8
20260507045533 52 259 8.0 14.0 0.00 0.00 0.00 48 1015.9
20260507044521 51 252 4.0 9.0 0.00 0.00 0.00 51 1015.8
20260507043531 52 223 8.0 12.0 0.00 0.00 0.00 48 1015.6
20260507042519 52 255 6.0 12.0 0.00 0.00 0.00 48 1015.3
20260507041529 53 243 7.0 17.0 0.00 0.00 0.00 48 1015.1
20260507040519 51 243 7.0 14.0 0.00 0.00 0.00 50 1015.1
20260507035534 52 236 7.0 15.0 0.00 0.00 0.00 49 1015.1
20260507034543 51 249 7.0 16.0 0.00 0.00 0.00 49 1015.0
20260507033526 51 237 7.0 13.0 0.00 0.00 0.00 50 1015.1
20260507032534 51 239 6.0 15.0 0.00 0.00 0.00 52 1015.0
20260507031523 52 236 6.0 10.0 0.00 0.00 0.00 51 1014.9
20260507030540 52 225 7.0 12.0 0.00 0.00 0.00 51 1014.8
20260507025522 52 262 5.0 13.0 0.00 0.00 0.00 51 1015.0
20260507024532 51 238 6.0 12.0 0.00 0.00 0.00 51 1014.8
20260507023520 50 211 8.0 15.0 0.00 0.00 0.00 50 1014.8
20260507022531 51 202 8.0 14.0 0.00 0.00 0.00 51 1014.9
20260507021520 51 225 6.0 10.0 0.00 0.00 0.00 51 1014.9
20260507020531 50 226 6.0 12.0 0.00 0.00 0.00 52 1015.0
20260507015518 51 265 8.0 15.0 0.00 0.00 0.00 51 1015.1
20260507014528 50 240 6.0 10.0 0.00 0.00 0.00 52 1015.2
20260507013537 50 227 6.0 13.0 0.00 0.00 0.00 51 1015.4
20260507012525 50 229 4.0 8.0 0.00 0.00 0.00 52 1015.3
20260507011535 50 248 4.0 11.0 0.00 0.00 0.00 53 1015.4
20260507010523 51 228 6.0 10.0 0.00 0.00 0.00 51 1015.5
20260507005533 51 271 6.0 12.0 0.00 0.00 0.00 52 1015.3
20260507004522 50 259 5.0 12.0 0.00 0.00 0.00 52 1015.1
20260507003531 50 235 8.0 19.0 0.00 0.00 0.00 52 1015.0
20260507002522 50 251 6.0 12.0 0.00 0.00 0.00 52 1015.0
20260507001529 49 261 5.0 16.0 0.00 0.00 0.00 53 1014.9
20260507000518 49 241 7.0 14.0 0.00 0.00 0.00 53 1015.2
20260506235528 50 206 5.0 10.0 0.00 0.00 0.00 54 1015.1
20260506234517 49 236 8.0 16.0 0.00 0.00 0.00 54 1014.8
20260506233527 49 264 7.0 13.0 0.00 0.00 0.00 55 1014.5
20260506232537 48 264 6.0 13.0 0.00 0.00 0.00 56 1014.8
20260506231524 48 266 6.0 13.0 0.00 0.00 0.00 57 1014.9
20260506230533 48 266 6.0 14.0 0.00 0.00 0.00 58 1014.8
20260506225529 48 246 6.0 11.0 0.00 0.00 0.00 58 1014.7
20260506224532 48 265 8.0 16.0 0.00 0.00 0.00 59 1014.8
20260506223521 48 247 7.0 15.0 0.00 0.00 0.00 59 1014.7
20260506222602 48 270 5.0 11.0 0.00 0.00 0.00 58 1014.4
20260506221518 48 269 6.0 13.0 0.00 0.00 0.00 59 1014.2
20260506220527 48 268 6.0 13.0 0.00 0.00 0.00 58 1013.9
20260506215543 48 271 7.0 13.0 0.00 0.00 0.00 58 1013.5
20260506214524 48 274 5.0 8.0 0.00 0.00 0.00 60 1013.5